SAS4638 LGAV-ENGM

Flight info

Callsign SAS4638
Flight time 3h 28m
Altitude 34000
Route KRO T162 NEVRA UT162 KOROS DCT PEREN UL863 MICPO/N0451F360 UL863 EVIVI L863 OKANA DCT ESIRI DCT PARAK DCT MAKAL DCT DESEN DCT GOSOT DCT SABAK DCT LUNIP
Aircraft A320/M-SDE3FGHIRWY/LB1

Departure

Time 2026-05-06 19:35
Airport Athens Eleftherios Venizelos International Airport (LGAV)

Arrival

Time 2026-05-06 23:04
Airport Oslo-Gardermoen International Airport (ENGM)
Time Latitude Longitude Altitude Speed Heading
2026-05-06 18:41 37.93796 23.95018 282 ft 0 kts 300°
2026-05-06 19:21 37.93784 23.95041 282 ft 4 kts 313°
2026-05-06 19:21 37.93770 23.95063 284 ft 2 kts 300°
2026-05-06 19:22 37.93755 23.95088 282 ft 4 kts 328°
2026-05-06 19:22 37.93734 23.95094 286 ft 4 kts 29°
2026-05-06 19:22 37.93713 23.95076 282 ft 4 kts 36°
2026-05-06 19:22 37.93691 23.95056 282 ft 4 kts 36°
2026-05-06 19:23 37.93679 23.95045 282 ft 0 kts 36°
2026-05-06 19:29 37.93685 23.95051 282 ft 3 kts 36°
2026-05-06 19:29 37.93712 23.95098 283 ft 10 kts 79°
2026-05-06 19:29 37.93675 23.95182 281 ft 10 kts 127°
2026-05-06 19:30 37.93647 23.95255 281 ft 8 kts 80°
2026-05-06 19:30 37.93678 23.95306 281 ft 7 kts 39°
2026-05-06 19:30 37.93712 23.95341 280 ft 6 kts 38°
2026-05-06 19:30 37.93758 23.95386 280 ft 11 kts 36°
2026-05-06 19:31 37.93836 23.95458 282 ft 15 kts 37°
2026-05-06 19:31 37.93928 23.95545 278 ft 17 kts 37°
2026-05-06 19:31 37.94130 23.95737 276 ft 20 kts 37°
2026-05-06 19:32 37.94243 23.95845 275 ft 21 kts 37°
2026-05-06 19:32 37.94366 23.95961 274 ft 23 kts 36°
2026-05-06 19:32 37.94490 23.96079 272 ft 23 kts 37°
2026-05-06 19:32 37.94620 23.96204 271 ft 24 kts 37°
2026-05-06 19:33 37.94758 23.96335 269 ft 25 kts 37°
2026-05-06 19:33 37.94895 23.96465 268 ft 25 kts 37°
2026-05-06 19:33 37.95035 23.96597 267 ft 24 kts 37°
2026-05-06 19:33 37.95173 23.96729 265 ft 24 kts 36°
2026-05-06 19:34 37.95288 23.96846 264 ft 16 kts 62°
2026-05-06 19:34 37.95257 23.96968 263 ft 13 kts 129°
2026-05-06 19:34 37.95198 23.97022 264 ft 9 kts 192°
2026-05-06 19:34 37.95137 23.96965 266 ft 21 kts 218°
2026-05-06 19:35 37.94862 23.96704 269 ft 82 kts 217°
2026-05-06 19:35 37.94239 23.96115 275 ft 138 kts 217°
2026-05-06 19:35 37.93347 23.95274 301 ft 179 kts 217°
2026-05-06 19:35 37.92340 23.94346 959 ft 177 kts 215°
2026-05-06 19:36 37.91278 23.93556 1646 ft 180 kts 208°
2026-05-06 19:36 37.90095 23.92799 1918 ft 201 kts 206°
2026-05-06 19:36 37.88766 23.91980 2226 ft 225 kts 206°
2026-05-06 19:36 37.87318 23.91057 2796 ft 238 kts 207°
2026-05-06 19:37 37.85828 23.90075 3605 ft 243 kts 208°
2026-05-06 19:37 37.84324 23.89070 4411 ft 247 kts 208°
2026-05-06 19:37 37.82789 23.88037 5205 ft 252 kts 208°
2026-05-06 19:37 37.81763 23.87341 5733 ft 254 kts 209°
2026-05-06 19:38 37.79661 23.85906 6786 ft 260 kts 209°
2026-05-06 19:38 37.78029 23.84891 7517 ft 264 kts 198°
2026-05-06 19:38 37.76193 23.84723 8228 ft 270 kts 169°
2026-05-06 19:38 37.74457 23.85700 8762 ft 284 kts 139°
2026-05-06 19:39 37.73267 23.87710 9368 ft 292 kts 117°
2026-05-06 19:39 37.72327 23.90009 10089 ft 296 kts 115°
2026-05-06 19:39 37.71732 23.92537 10481 ft 312 kts 93°
2026-05-06 19:39 37.72025 23.95317 10677 ft 332 kts 67°
2026-05-06 19:40 37.73314 23.97816 10830 ft 352 kts 46°
2026-05-06 19:40 37.75045 24.00112 11096 ft 368 kts 45°
2026-05-06 19:40 37.76836 24.02461 11688 ft 373 kts 45°
2026-05-06 19:40 37.78642 24.04834 12337 ft 377 kts 45°
2026-05-06 19:41 37.80462 24.07236 12988 ft 380 kts 44°
2026-05-06 19:41 37.82295 24.09669 13643 ft 384 kts 44°
2026-05-06 19:41 37.84142 24.12134 14235 ft 387 kts 44°
2026-05-06 19:41 37.85998 24.14615 14766 ft 390 kts 44°
2026-05-06 19:42 37.87233 24.16266 15144 ft 392 kts 44°
2026-05-06 19:42 37.89730 24.19598 15864 ft 396 kts 44°
2026-05-06 19:42 37.91629 24.22129 16393 ft 398 kts 44°
2026-05-06 19:42 37.93548 24.24690 16909 ft 401 kts 43°
2026-05-06 19:43 37.95472 24.27261 17413 ft 404 kts 43°
2026-05-06 19:43 37.96780 24.29014 17753 ft 406 kts 43°
2026-05-06 19:43 37.98726 24.31626 18248 ft 409 kts 43°
2026-05-06 19:43 38.00684 24.34257 18693 ft 412 kts 43°
2026-05-06 19:44 38.02655 24.36909 19139 ft 414 kts 43°
2026-05-06 19:44 38.04641 24.39579 19564 ft 417 kts 43°
2026-05-06 19:44 38.06608 24.42227 20003 ft 419 kts 43°
2026-05-06 19:44 38.08610 24.44923 20447 ft 421 kts 43°
2026-05-06 19:45 38.10626 24.47639 20887 ft 423 kts 43°
2026-05-06 19:45 38.12647 24.50358 21306 ft 425 kts 43°
2026-05-06 19:45 38.14737 24.53030 21712 ft 425 kts 37°
2026-05-06 19:45 38.17091 24.55277 22103 ft 423 kts 28°
2026-05-06 19:46 38.19691 24.56991 22496 ft 420 kts 19°
2026-05-06 19:46 38.22465 24.58158 22853 ft 420 kts 13°
2026-05-06 19:46 38.25315 24.58924 23228 ft 417 kts
2026-05-06 19:46 38.28198 24.58722 23598 ft 415 kts 347°
2026-05-06 19:47 38.31031 24.58014 23919 ft 416 kts 347°
2026-05-06 19:47 38.33878 24.57277 24245 ft 418 kts 346°
2026-05-06 19:47 38.36730 24.56526 24565 ft 419 kts 346°
2026-05-06 19:47 38.39593 24.55768 24872 ft 421 kts 346°
2026-05-06 19:48 38.42473 24.55006 25172 ft 423 kts 346°
2026-05-06 19:48 38.45367 24.54248 25464 ft 425 kts 346°
2026-05-06 19:48 38.48269 24.53496 25754 ft 426 kts 346°
2026-05-06 19:48 38.51183 24.52743 26039 ft 428 kts 346°
2026-05-06 19:49 38.54106 24.51989 26318 ft 430 kts 346°
2026-05-06 19:49 38.57042 24.51229 26602 ft 431 kts 346°
2026-05-06 19:49 38.59988 24.50464 26859 ft 433 kts 346°
2026-05-06 19:49 38.62943 24.49695 27114 ft 434 kts 346°
2026-05-06 19:50 38.65908 24.48918 27370 ft 436 kts 346°
2026-05-06 19:50 38.68885 24.48133 27628 ft 438 kts 346°
2026-05-06 19:50 38.71837 24.47353 27972 ft 437 kts 346°
2026-05-06 19:50 38.74843 24.46563 28369 ft 435 kts 346°
2026-05-06 19:51 38.77806 24.45788 28747 ft 435 kts 346°
2026-05-06 19:51 38.80769 24.45012 29117 ft 434 kts 346°
2026-05-06 19:51 38.83723 24.44234 29482 ft 433 kts 346°
2026-05-06 19:51 38.86664 24.43456 29846 ft 432 kts 346°
2026-05-06 19:52 38.89603 24.42680 30188 ft 431 kts 346°
2026-05-06 19:52 38.92543 24.41905 30503 ft 430 kts 346°
2026-05-06 19:52 38.95471 24.41135 30804 ft 430 kts 346°
2026-05-06 19:52 38.98396 24.40367 31103 ft 429 kts 346°
2026-05-06 19:53 39.01319 24.39600 31405 ft 428 kts 346°
2026-05-06 19:53 39.04233 24.38835 31719 ft 427 kts 346°
2026-05-06 19:53 39.07107 24.38078 31998 ft 426 kts 346°
2026-05-06 19:53 39.10016 24.37307 32275 ft 426 kts 346°
2026-05-06 19:54 39.12916 24.36535 32554 ft 426 kts 346°
2026-05-06 19:54 39.15816 24.35763 32872 ft 425 kts 346°
2026-05-06 19:54 39.18710 24.34991 33165 ft 424 kts 346°
2026-05-06 19:54 39.21602 24.34223 33457 ft 423 kts 346°
2026-05-06 19:55 39.24480 24.33459 33749 ft 423 kts 346°
2026-05-06 19:55 39.27406 24.32679 34047 ft 422 kts 346°
2026-05-06 19:55 39.30279 24.31911 34308 ft 421 kts 346°
2026-05-06 19:55 39.33109 24.31155 34547 ft 421 kts 346°
2026-05-06 19:56 39.35981 24.30392 34786 ft 421 kts 346°
2026-05-06 19:56 39.38844 24.29631 35036 ft 420 kts 346°
2026-05-06 19:56 39.41708 24.28868 35255 ft 419 kts 346°
2026-05-06 19:56 39.44565 24.28108 35460 ft 419 kts 346°
2026-05-06 19:57 39.47429 24.27345 35656 ft 419 kts 346°
2026-05-06 19:57 39.50281 24.26581 35837 ft 419 kts 346°
2026-05-06 19:57 39.53135 24.25816 36012 ft 420 kts 346°
2026-05-06 19:57 39.56002 24.25044 36064 ft 422 kts 346°
2026-05-06 19:58 39.61758 24.23501 36064 ft 423 kts 346°
2026-05-06 19:58 39.67517 24.21948 36065 ft 423 kts 346°
2026-05-06 19:59 39.73273 24.20400 36066 ft 423 kts 346°
2026-05-06 19:59 39.79034 24.18843 36067 ft 422 kts 346°
2026-05-06 20:00 39.84787 24.17285 36078 ft 422 kts 345°
2026-05-06 20:00 39.90531 24.15726 36074 ft 422 kts 345°
2026-05-06 20:01 39.96278 24.14165 36072 ft 421 kts 345°
2026-05-06 20:01 40.02028 24.12609 36076 ft 422 kts 345°
2026-05-06 20:02 40.07736 24.11055 36074 ft 422 kts 345°
2026-05-06 20:02 40.13488 24.09480 36073 ft 422 kts 345°
2026-05-06 20:03 40.19241 24.07901 36072 ft 422 kts 345°
2026-05-06 20:03 40.24996 24.06326 36064 ft 422 kts 345°
2026-05-06 20:04 40.30753 24.04749 36066 ft 423 kts 345°
2026-05-06 20:04 40.36516 24.03169 36067 ft 423 kts 345°
2026-05-06 20:05 40.42277 24.01577 36063 ft 423 kts 345°
2026-05-06 20:05 40.48042 23.99989 36074 ft 423 kts 345°
2026-05-06 20:06 40.53803 23.98404 36071 ft 423 kts 345°
2026-05-06 20:06 40.59532 23.96665 36070 ft 421 kts 338°
2026-05-06 20:07 40.64845 23.93529 36064 ft 419 kts 332°
2026-05-06 20:07 40.70069 23.90247 36072 ft 419 kts 332°
2026-05-06 20:08 40.75364 23.86921 36075 ft 419 kts 332°
2026-05-06 20:08 40.80585 23.83632 36075 ft 419 kts 332°
2026-05-06 20:09 40.85848 23.80309 36073 ft 418 kts 332°
2026-05-06 20:09 40.91098 23.76985 36085 ft 418 kts 332°
2026-05-06 20:10 40.96341 23.73660 36066 ft 418 kts 332°
2026-05-06 20:10 41.01589 23.70324 36062 ft 418 kts 332°
2026-05-06 20:11 41.06839 23.66990 36057 ft 419 kts 332°
2026-05-06 20:11 41.12090 23.63648 36064 ft 419 kts 332°
2026-05-06 20:12 41.17355 23.60281 36075 ft 419 kts 332°
2026-05-06 20:12 41.22605 23.56916 36066 ft 419 kts 332°
2026-05-06 20:13 41.27869 23.53546 36070 ft 420 kts 332°
2026-05-06 20:13 41.33126 23.50175 36066 ft 420 kts 332°
2026-05-06 20:14 41.38385 23.46786 36075 ft 420 kts 332°
2026-05-06 20:14 41.43639 23.43384 36071 ft 420 kts 331°
2026-05-06 20:15 41.48894 23.39959 36073 ft 420 kts 331°
2026-05-06 20:15 41.54109 23.36559 36071 ft 420 kts 331°
2026-05-06 20:16 41.59394 23.33095 36071 ft 420 kts 331°
2026-05-06 20:16 41.64618 23.29675 36075 ft 421 kts 331°
2026-05-06 20:17 41.69879 23.26228 36078 ft 421 kts 331°
2026-05-06 20:17 41.75138 23.22772 36081 ft 421 kts 331°
2026-05-06 20:18 41.80399 23.19310 36083 ft 421 kts 331°
2026-05-06 20:18 41.85658 23.15839 36092 ft 421 kts 331°
2026-05-06 20:19 41.90916 23.12356 36087 ft 421 kts 331°
2026-05-06 20:19 41.96174 23.08875 36064 ft 421 kts 331°
2026-05-06 20:20 42.01431 23.05385 36064 ft 421 kts 331°
2026-05-06 20:20 42.06692 23.01877 36073 ft 422 kts 331°
2026-05-06 20:21 42.11960 22.98376 36075 ft 422 kts 331°
2026-05-06 20:21 42.17220 22.94871 36064 ft 422 kts 331°
2026-05-06 20:22 42.22478 22.91358 36058 ft 422 kts 331°
2026-05-06 20:22 42.27746 22.87840 36064 ft 422 kts 331°
2026-05-06 20:23 42.33005 22.84319 36058 ft 422 kts 331°
2026-05-06 20:23 42.38230 22.80800 36054 ft 422 kts 331°
2026-05-06 20:24 42.43529 22.77228 36054 ft 423 kts 331°
2026-05-06 20:24 42.48760 22.73701 36051 ft 423 kts 331°
2026-05-06 20:25 42.54025 22.70139 36059 ft 423 kts 331°
2026-05-06 20:25 42.59296 22.66568 36065 ft 423 kts 331°
2026-05-06 20:26 42.64569 22.62993 36069 ft 423 kts 331°
2026-05-06 20:26 42.69834 22.59414 36067 ft 423 kts 331°
2026-05-06 20:27 42.74212 22.56428 36067 ft 423 kts 331°
2026-05-06 20:27 42.79476 22.52838 36066 ft 424 kts 331°
2026-05-06 20:28 42.84751 22.49241 36066 ft 423 kts 330°
2026-05-06 20:28 42.90024 22.45657 36060 ft 425 kts 331°
2026-05-06 20:29 42.95353 22.42032 36083 ft 428 kts 331°
2026-05-06 20:29 43.00679 22.38403 36075 ft 427 kts 330°
2026-05-06 20:30 43.08622 22.32973 36049 ft 425 kts 330°
2026-05-06 20:31 43.13913 22.29350 36040 ft 424 kts 330°
2026-05-06 20:31 43.19178 22.25745 36048 ft 423 kts 330°
2026-05-06 20:32 43.24446 22.22129 36029 ft 423 kts 330°
2026-05-06 20:32 43.29681 22.18517 36018 ft 423 kts 330°
2026-05-06 20:33 43.34946 22.14882 36009 ft 423 kts 330°
2026-05-06 20:33 43.40194 22.11246 36015 ft 422 kts 329°
2026-05-06 20:34 43.45449 22.07610 35998 ft 423 kts 329°
2026-05-06 20:34 43.50704 22.03971 35995 ft 423 kts 329°
2026-05-06 20:35 43.55964 22.00308 35975 ft 425 kts 329°
2026-05-06 20:35 43.61266 21.96621 35996 ft 426 kts 329°
2026-05-06 20:36 43.66551 21.92920 36002 ft 426 kts 329°
2026-05-06 20:36 43.71849 21.89211 36002 ft 427 kts 329°
2026-05-06 20:37 43.77154 21.85495 35992 ft 428 kts 329°
2026-05-06 20:37 43.82469 21.81772 36004 ft 428 kts 329°
2026-05-06 20:38 43.87736 21.78055 36015 ft 427 kts 329°
2026-05-06 20:38 43.93027 21.74311 36011 ft 427 kts 329°
2026-05-06 20:39 43.98328 21.70570 35998 ft 427 kts 329°
2026-05-06 20:39 44.03623 21.66822 35998 ft 427 kts 329°
2026-05-06 20:40 44.08910 21.63063 35996 ft 428 kts 329°
2026-05-06 20:40 44.14218 21.59292 35999 ft 428 kts 329°
2026-05-06 20:41 44.19510 21.55528 35984 ft 427 kts 329°
2026-05-06 20:41 44.24806 21.51751 35978 ft 427 kts 328°
2026-05-06 20:42 44.30100 21.47971 35968 ft 427 kts 328°
2026-05-06 20:42 44.35388 21.44175 35964 ft 428 kts 328°
2026-05-06 20:43 44.40680 21.40374 35959 ft 428 kts 328°
2026-05-06 20:43 44.45973 21.36550 35956 ft 428 kts 328°
2026-05-06 20:44 44.51262 21.32727 35933 ft 428 kts 328°
2026-05-06 20:44 44.56563 21.28901 35941 ft 429 kts 328°
2026-05-06 20:45 44.61840 21.25076 35934 ft 430 kts 328°
2026-05-06 20:45 44.67155 21.21216 35932 ft 430 kts 328°
2026-05-06 20:46 44.72476 21.17346 35939 ft 430 kts 328°
2026-05-06 20:46 44.77792 21.13472 35950 ft 430 kts 328°
2026-05-06 20:47 44.83094 21.09599 35945 ft 429 kts 328°
2026-05-06 20:47 44.88391 21.05717 35943 ft 429 kts 327°
2026-05-06 20:48 44.93684 21.01837 35949 ft 429 kts 327°
2026-05-06 20:48 44.98976 20.97943 35946 ft 429 kts 327°
2026-05-06 20:49 45.04270 20.94040 35940 ft 430 kts 328°
2026-05-06 20:49 45.09544 20.90131 35920 ft 431 kts 327°
2026-05-06 20:50 45.14855 20.86195 35916 ft 431 kts 328°
2026-05-06 20:50 45.20180 20.82263 35924 ft 432 kts 327°
2026-05-06 20:51 45.25505 20.78304 35931 ft 432 kts 327°
2026-05-06 20:51 45.30844 20.74334 35907 ft 435 kts 328°
2026-05-06 20:52 45.36208 20.70328 35894 ft 437 kts 328°
2026-05-06 20:52 45.41617 20.66286 35898 ft 439 kts 328°
2026-05-06 20:53 45.47026 20.62231 35919 ft 440 kts 328°
2026-05-06 20:53 45.52439 20.58165 35926 ft 440 kts 328°
2026-05-06 20:54 45.57864 20.54068 35906 ft 441 kts 328°
2026-05-06 20:54 45.63256 20.49991 35911 ft 442 kts 328°
2026-05-06 20:55 45.68696 20.45891 35910 ft 442 kts 328°
2026-05-06 20:55 45.74141 20.41774 35941 ft 443 kts 328°
2026-05-06 20:56 45.79590 20.37636 35920 ft 444 kts 328°
2026-05-06 20:56 45.85039 20.33474 35917 ft 444 kts 328°
2026-05-06 20:57 45.90497 20.29299 35917 ft 445 kts 328°
2026-05-06 20:57 45.95960 20.25122 35914 ft 445 kts 328°
2026-05-06 20:58 46.01418 20.20933 35913 ft 446 kts 328°
2026-05-06 20:58 46.06901 20.16720 35920 ft 446 kts 328°
2026-05-06 20:59 46.12383 20.12516 35923 ft 446 kts 328°
2026-05-06 20:59 46.17948 20.08510 35924 ft 449 kts 334°
2026-05-06 21:00 46.23742 20.05103 35928 ft 450 kts 334°
2026-05-06 21:00 46.29537 20.01672 35910 ft 451 kts 334°
2026-05-06 21:01 46.35347 19.98228 35907 ft 452 kts 334°
2026-05-06 21:01 46.41170 19.94793 35907 ft 453 kts 334°
2026-05-06 21:02 46.46967 19.91362 35921 ft 453 kts 334°
2026-05-06 21:02 46.52807 19.87885 35919 ft 454 kts 334°
2026-05-06 21:03 46.58653 19.84395 35915 ft 454 kts 334°
2026-05-06 21:03 46.64510 19.80895 35938 ft 455 kts 334°
2026-05-06 21:04 46.70361 19.77390 35942 ft 455 kts 334°
2026-05-06 21:04 46.76207 19.73880 35942 ft 455 kts 334°
2026-05-06 21:05 46.82057 19.70354 35938 ft 455 kts 334°
2026-05-06 21:05 46.87921 19.66829 35918 ft 455 kts 334°
2026-05-06 21:06 46.93775 19.63298 35916 ft 455 kts 334°
2026-05-06 21:06 46.99622 19.59740 35940 ft 455 kts 334°
2026-05-06 21:07 47.05471 19.56182 35929 ft 455 kts 334°
2026-05-06 21:07 47.11324 19.52623 35925 ft 455 kts 334°
2026-05-06 21:08 47.17181 19.49055 35925 ft 456 kts 334°
2026-05-06 21:08 47.23035 19.45472 35925 ft 455 kts 334°
2026-05-06 21:09 47.28836 19.41903 35922 ft 455 kts 334°
2026-05-06 21:09 47.34689 19.38299 35934 ft 455 kts 334°
2026-05-06 21:10 47.40523 19.34713 35930 ft 454 kts 334°
2026-05-06 21:10 47.46372 19.31117 35934 ft 455 kts 334°
2026-05-06 21:11 47.52209 19.27497 35924 ft 455 kts 334°
2026-05-06 21:11 47.58045 19.23875 35917 ft 455 kts 334°
2026-05-06 21:12 47.63885 19.20247 35938 ft 455 kts 334°
2026-05-06 21:12 47.69715 19.16597 35938 ft 455 kts 333°
2026-05-06 21:13 47.75550 19.12943 35932 ft 455 kts 333°
2026-05-06 21:13 47.81340 19.09314 35930 ft 455 kts 333°
2026-05-06 21:14 47.87174 19.05659 35925 ft 455 kts 333°
2026-05-06 21:14 47.93003 19.01985 35927 ft 455 kts 333°
2026-05-06 21:15 47.98824 18.98295 35944 ft 454 kts 333°
2026-05-06 21:15 48.04650 18.94614 35935 ft 454 kts 333°
2026-05-06 21:16 48.10459 18.90929 35930 ft 453 kts 333°
2026-05-06 21:16 48.16264 18.87241 35928 ft 453 kts 333°
2026-05-06 21:17 48.21095 18.84165 35924 ft 454 kts 333°
2026-05-06 21:17 48.26897 18.80454 35911 ft 454 kts 333°
2026-05-06 21:18 48.32713 18.76726 35932 ft 454 kts 333°
2026-05-06 21:18 48.38523 18.72981 35897 ft 454 kts 332°
2026-05-06 21:19 48.44331 18.69240 35905 ft 454 kts 332°
2026-05-06 21:19 48.50140 18.65494 35898 ft 454 kts 332°
2026-05-06 21:20 48.55948 18.61738 35884 ft 454 kts 332°
2026-05-06 21:20 48.61766 18.57976 35881 ft 455 kts 332°
2026-05-06 21:21 48.67549 18.54212 35885 ft 455 kts 332°
2026-05-06 21:21 48.73373 18.50411 35886 ft 456 kts 332°
2026-05-06 21:22 48.79197 18.46600 35880 ft 456 kts 332°
2026-05-06 21:22 48.85026 18.42782 35871 ft 456 kts 332°
2026-05-06 21:23 48.90853 18.38955 35869 ft 456 kts 332°
2026-05-06 21:23 48.96682 18.35111 35860 ft 456 kts 332°
2026-05-06 21:24 49.02501 18.31260 35868 ft 457 kts 332°
2026-05-06 21:24 49.08311 18.27388 35835 ft 455 kts 331°
2026-05-06 21:25 49.14131 18.23539 35824 ft 456 kts 332°
2026-05-06 21:25 49.19951 18.19698 35823 ft 455 kts 331°
2026-05-06 21:26 49.25749 18.15845 35790 ft 454 kts 332°
2026-05-06 21:26 49.31610 18.12142 35793 ft 457 kts 333°
2026-05-06 21:27 49.37510 18.08540 35809 ft 456 kts 333°
2026-05-06 21:27 49.43416 18.04906 35794 ft 458 kts 333°
2026-05-06 21:28 49.49318 18.01215 35803 ft 458 kts 332°
2026-05-06 21:28 49.55221 17.97497 35796 ft 459 kts 332°
2026-05-06 21:29 49.61104 17.93789 35802 ft 461 kts 332°
2026-05-06 21:29 49.67032 17.90046 35802 ft 460 kts 332°
2026-05-06 21:30 49.72952 17.86313 35805 ft 460 kts 332°
2026-05-06 21:30 49.78881 17.82569 35807 ft 460 kts 332°
2026-05-06 21:31 49.84809 17.78808 35801 ft 460 kts 332°
2026-05-06 21:31 49.90731 17.75026 35804 ft 460 kts 332°
2026-05-06 21:32 49.96651 17.71242 35808 ft 460 kts 332°
2026-05-06 21:32 50.05531 17.65552 35807 ft 461 kts 331°
2026-05-06 21:33 50.11460 17.61746 35829 ft 461 kts 331°
2026-05-06 21:33 50.17389 17.57929 35802 ft 461 kts 331°
2026-05-06 21:34 50.23315 17.54098 35789 ft 461 kts 331°
2026-05-06 21:34 50.29260 17.50308 35796 ft 463 kts 333°
2026-05-06 21:35 50.35372 17.47033 35800 ft 465 kts 336°
2026-05-06 21:35 50.41512 17.44006 35800 ft 465 kts 336°
2026-05-06 21:36 50.47672 17.40847 35804 ft 465 kts 335°
2026-05-06 21:36 50.53794 17.37564 35825 ft 465 kts 335°
2026-05-06 21:37 50.59915 17.34249 35801 ft 465 kts 335°
2026-05-06 21:37 50.66043 17.30966 35790 ft 467 kts 335°
2026-05-06 21:38 50.72191 17.27676 35787 ft 467 kts 335°
2026-05-06 21:38 50.78332 17.24371 35805 ft 468 kts 335°
2026-05-06 21:39 50.84500 17.21051 35801 ft 468 kts 335°
2026-05-06 21:39 50.90678 17.17735 35831 ft 468 kts 335°
2026-05-06 21:40 50.96822 17.14413 35801 ft 469 kts 335°
2026-05-06 21:40 51.03042 17.11031 35816 ft 469 kts 336°
2026-05-06 21:41 51.09176 17.07687 35810 ft 469 kts 335°
2026-05-06 21:41 51.15351 17.04298 35811 ft 470 kts 335°
2026-05-06 21:42 51.21540 17.00900 35806 ft 470 kts 335°
2026-05-06 21:42 51.27746 16.97481 35815 ft 472 kts 336°
2026-05-06 21:43 51.33957 16.94076 35853 ft 471 kts 336°
2026-05-06 21:43 51.40140 16.90671 35841 ft 470 kts 335°
2026-05-06 21:44 51.46318 16.87246 35843 ft 469 kts 335°
2026-05-06 21:44 51.52479 16.83814 35837 ft 469 kts 335°
2026-05-06 21:45 51.58635 16.80380 35850 ft 468 kts 335°
2026-05-06 21:45 51.64786 16.76949 35839 ft 467 kts 335°
2026-05-06 21:46 51.70922 16.73503 35839 ft 467 kts 335°
2026-05-06 21:46 51.77054 16.70047 35857 ft 467 kts 335°
2026-05-06 21:47 51.83160 16.66601 35862 ft 467 kts 335°
2026-05-06 21:47 51.89297 16.63141 35863 ft 467 kts 335°
2026-05-06 21:48 51.95420 16.59669 35846 ft 466 kts 335°
2026-05-06 21:48 52.01544 16.56187 35836 ft 466 kts 335°
2026-05-06 21:49 52.07660 16.52694 35832 ft 466 kts 335°
2026-05-06 21:49 52.13778 16.49186 35849 ft 466 kts 335°
2026-05-06 21:50 52.19891 16.45678 35876 ft 465 kts 335°
2026-05-06 21:50 52.25993 16.42158 35863 ft 465 kts 335°
2026-05-06 21:51 52.32108 16.38632 35856 ft 465 kts 335°
2026-05-06 21:51 52.38200 16.35114 35849 ft 465 kts 335°
2026-05-06 21:52 52.44304 16.31564 35844 ft 465 kts 335°
2026-05-06 21:52 52.50397 16.28014 35846 ft 465 kts 335°
2026-05-06 21:53 52.56488 16.24453 35844 ft 465 kts 335°
2026-05-06 21:53 52.62576 16.20890 35879 ft 465 kts 335°
2026-05-06 21:54 52.68676 16.17311 35866 ft 466 kts 335°
2026-05-06 21:54 52.74779 16.13718 35859 ft 466 kts 335°
2026-05-06 21:55 52.80858 16.10124 35856 ft 467 kts 335°
2026-05-06 21:55 52.87011 16.06472 35856 ft 467 kts 335°
2026-05-06 21:56 52.93135 16.02823 35870 ft 468 kts 335°
2026-05-06 21:56 52.99220 15.99193 35859 ft 468 kts 335°
2026-05-06 21:57 53.05359 15.95534 35860 ft 469 kts 335°
2026-05-06 21:57 53.11501 15.91845 35872 ft 469 kts 335°
2026-05-06 21:58 53.17643 15.88147 35870 ft 469 kts 335°
2026-05-06 21:58 53.23785 15.84442 35892 ft 469 kts 335°
2026-05-06 21:59 53.29927 15.80728 35889 ft 469 kts 335°
2026-05-06 21:59 53.36063 15.76994 35890 ft 469 kts 334°
2026-05-06 22:00 53.42203 15.73239 35891 ft 470 kts 334°
2026-05-06 22:00 53.48347 15.69496 35905 ft 470 kts 335°
2026-05-06 22:01 53.54486 15.65739 35933 ft 470 kts 335°
2026-05-06 22:01 53.60630 15.61942 35920 ft 470 kts 335°
2026-05-06 22:02 53.65735 15.58788 35913 ft 470 kts 335°
2026-05-06 22:02 53.71883 15.54990 35912 ft 470 kts 335°
2026-05-06 22:03 53.79022 15.50577 35931 ft 470 kts 335°
2026-05-06 22:03 53.84164 15.47382 35929 ft 469 kts 335°
2026-05-06 22:04 53.90284 15.43559 35928 ft 469 kts 335°
2026-05-06 22:04 53.96394 15.39720 35924 ft 468 kts 335°
2026-05-06 22:05 54.02514 15.35885 35936 ft 468 kts 335°
2026-05-06 22:05 54.08625 15.32042 35942 ft 467 kts 335°
2026-05-06 22:06 54.14720 15.28178 35937 ft 467 kts 335°
2026-05-06 22:06 54.20811 15.24309 35939 ft 467 kts 335°
2026-05-06 22:07 54.26900 15.20444 35938 ft 467 kts 335°
2026-05-06 22:07 54.32949 15.16595 35953 ft 467 kts 335°
2026-05-06 22:08 54.39041 15.12697 35947 ft 467 kts 335°
2026-05-06 22:08 54.45126 15.08791 35965 ft 467 kts 335°
2026-05-06 22:09 54.51205 15.04864 35956 ft 467 kts 335°
2026-05-06 22:09 54.57290 15.00933 35964 ft 467 kts 335°
2026-05-06 22:10 54.63369 14.96982 35974 ft 467 kts 334°
2026-05-06 22:10 54.69459 14.93021 35980 ft 468 kts 334°
2026-05-06 22:11 54.75551 14.89061 35978 ft 468 kts 334°
2026-05-06 22:11 54.81594 14.84903 35977 ft 464 kts 328°
2026-05-06 22:12 54.87358 14.79896 36007 ft 464 kts 328°
2026-05-06 22:12 54.93128 14.74887 36020 ft 463 kts 329°
2026-05-06 22:13 54.98884 14.69896 36024 ft 462 kts 329°
2026-05-06 22:13 55.04589 14.64926 36023 ft 461 kts 329°
2026-05-06 22:14 55.10323 14.59903 36017 ft 460 kts 328°
2026-05-06 22:14 55.16040 14.54869 36009 ft 460 kts 328°
2026-05-06 22:15 55.21757 14.49824 36003 ft 460 kts 328°
2026-05-06 22:15 55.27472 14.44768 36021 ft 460 kts 329°
2026-05-06 22:16 55.33185 14.39717 36012 ft 460 kts 329°
2026-05-06 22:16 55.38892 14.34642 36004 ft 460 kts 329°
2026-05-06 22:17 55.44591 14.29539 35999 ft 460 kts 328°
2026-05-06 22:17 55.50296 14.24433 36007 ft 459 kts 328°
2026-05-06 22:18 55.55994 14.19315 35998 ft 459 kts 328°
2026-05-06 22:18 55.61679 14.14186 36002 ft 459 kts 328°
2026-05-06 22:19 55.67334 14.09077 36024 ft 459 kts 329°
2026-05-06 22:19 55.73011 14.03920 36024 ft 458 kts 328°
2026-05-06 22:20 55.78681 13.98741 36035 ft 458 kts 328°
2026-05-06 22:20 55.84346 13.93569 36033 ft 458 kts 328°
2026-05-06 22:21 55.90013 13.88377 36028 ft 457 kts 328°
2026-05-06 22:21 55.95668 13.83189 36025 ft 457 kts 328°
2026-05-06 22:22 56.01322 13.78000 36027 ft 457 kts 328°
2026-05-06 22:22 56.06964 13.72766 36048 ft 456 kts 328°
2026-05-06 22:23 56.12595 13.67519 36052 ft 456 kts 328°
2026-05-06 22:23 56.18218 13.62269 36045 ft 455 kts 328°
2026-05-06 22:24 56.23840 13.57022 36038 ft 455 kts 328°
2026-05-06 22:24 56.29450 13.51771 36024 ft 454 kts 328°
2026-05-06 22:25 56.35014 13.46519 36022 ft 454 kts 328°
2026-05-06 22:25 56.40610 13.41205 36036 ft 455 kts 327°
2026-05-06 22:26 56.46218 13.35896 36055 ft 455 kts 327°
2026-05-06 22:26 56.51830 13.30584 36038 ft 456 kts 327°
2026-05-06 22:27 56.57446 13.25250 36017 ft 456 kts 327°
2026-05-06 22:27 56.63047 13.19864 36016 ft 456 kts 327°
2026-05-06 22:28 56.68653 13.14477 36033 ft 455 kts 327°
2026-05-06 22:28 56.74255 13.09082 36025 ft 456 kts 327°
2026-05-06 22:29 56.79865 13.03672 36017 ft 456 kts 327°
2026-05-06 22:29 56.85466 12.98233 36013 ft 457 kts 328°
2026-05-06 22:30 56.91399 12.94016 36031 ft 461 kts 335°
2026-05-06 22:30 56.97432 12.90009 36026 ft 461 kts 335°
2026-05-06 22:31 57.03453 12.85970 36040 ft 460 kts 334°
2026-05-06 22:31 57.09463 12.81914 36021 ft 460 kts 334°
2026-05-06 22:32 57.15466 12.77835 36017 ft 460 kts 334°
2026-05-06 22:32 57.21465 12.73752 36011 ft 459 kts 334°
2026-05-06 22:33 57.27464 12.69667 36001 ft 459 kts 334°
2026-05-06 22:33 57.33447 12.65573 36018 ft 458 kts 334°
2026-05-06 22:34 57.39420 12.61471 36027 ft 458 kts 334°
2026-05-06 22:34 57.45391 12.57342 36012 ft 458 kts 334°
2026-05-06 22:35 57.51370 12.53217 35999 ft 458 kts 334°
2026-05-06 22:35 57.57337 12.49099 35991 ft 457 kts 334°
2026-05-06 22:36 57.63305 12.44938 36008 ft 457 kts 333°
2026-05-06 22:36 57.69255 12.40768 35983 ft 457 kts 333°
2026-05-06 22:37 57.75162 12.36611 35974 ft 457 kts 333°
2026-05-06 22:37 57.81115 12.32403 35970 ft 457 kts 333°
2026-05-06 22:38 57.87084 12.28226 35973 ft 458 kts 333°
2026-05-06 22:38 57.93050 12.24010 36024 ft 458 kts 333°
2026-05-06 22:39 57.99000 12.19753 36010 ft 457 kts 333°
2026-05-06 22:39 58.04942 12.15484 36007 ft 457 kts 333°
2026-05-06 22:40 58.10898 12.11231 35999 ft 457 kts 333°
2026-05-06 22:40 58.16838 12.06971 35993 ft 456 kts 333°
2026-05-06 22:41 58.25702 12.00568 35985 ft 456 kts 333°
2026-05-06 22:42 58.31633 11.96277 35987 ft 456 kts 333°
2026-05-06 22:42 58.37567 11.91953 35987 ft 456 kts 333°
2026-05-06 22:43 58.43488 11.87607 35982 ft 456 kts 333°
2026-05-06 22:43 58.49418 11.83247 35751 ft 457 kts 333°
2026-05-06 22:43 58.52378 11.81070 35511 ft 456 kts 333°
2026-05-06 22:44 58.55341 11.78888 35269 ft 456 kts 332°
2026-05-06 22:44 58.58305 11.76700 34748 ft 457 kts 332°
2026-05-06 22:44 58.61287 11.74494 33819 ft 463 kts 332°
2026-05-06 22:44 58.64305 11.72255 32809 ft 466 kts 332°
2026-05-06 22:45 58.67337 11.70003 31772 ft 469 kts 332°
2026-05-06 22:45 58.70382 11.67734 30743 ft 472 kts 332°
2026-05-06 22:45 58.73448 11.65449 29903 ft 471 kts 332°
2026-05-06 22:45 58.76512 11.63173 28717 ft 473 kts 332°
2026-05-06 22:46 58.79547 11.60914 27563 ft 474 kts 333°
2026-05-06 22:46 58.82630 11.58607 26430 ft 475 kts 333°
2026-05-06 22:46 58.85710 11.56298 25344 ft 475 kts 333°
2026-05-06 22:46 58.88772 11.53997 24422 ft 471 kts 333°
2026-05-06 22:47 58.91789 11.51731 22994 ft 460 kts 333°
2026-05-06 22:47 58.94740 11.49504 21797 ft 449 kts 334°
2026-05-06 22:47 58.97581 11.47362 21229 ft 428 kts 333°
2026-05-06 22:47 59.00342 11.45315 20690 ft 420 kts 336°
2026-05-06 22:48 59.03148 11.44086 20577 ft 407 kts 344°
2026-05-06 22:48 59.05901 11.43119 20485 ft 402 kts 344°
2026-05-06 22:48 59.08654 11.42126 20393 ft 402 kts 343°
2026-05-06 22:48 59.11402 11.41123 20305 ft 402 kts 343°
2026-05-06 22:49 59.14147 11.40125 19732 ft 400 kts 343°
2026-05-06 22:49 59.16880 11.39135 19069 ft 398 kts 343°
2026-05-06 22:49 59.19593 11.38156 18441 ft 395 kts 343°
2026-05-06 22:49 59.22258 11.37202 17787 ft 393 kts 344°
2026-05-06 22:50 59.24966 11.36238 17180 ft 388 kts 344°
2026-05-06 22:50 59.27577 11.35305 16635 ft 384 kts 344°
2026-05-06 22:50 59.30190 11.34366 16085 ft 380 kts 344°
2026-05-06 22:50 59.32784 11.33430 15567 ft 378 kts 344°
2026-05-06 22:51 59.35364 11.32497 15047 ft 376 kts 344°
2026-05-06 22:51 59.37928 11.31567 14528 ft 374 kts 344°
2026-05-06 22:51 59.40478 11.30643 14051 ft 373 kts 344°
2026-05-06 22:51 59.42198 11.30018 13649 ft 372 kts 344°
2026-05-06 22:52 59.45405 11.28849 12921 ft 369 kts 345°
2026-05-06 22:52 59.47917 11.27937 12340 ft 366 kts 345°
2026-05-06 22:52 59.49575 11.27333 11941 ft 364 kts 345°
2026-05-06 22:52 59.52059 11.26425 11325 ft 362 kts 346°
2026-05-06 22:53 59.54503 11.25530 11067 ft 350 kts 346°
2026-05-06 22:53 59.56852 11.24673 10938 ft 335 kts 346°
2026-05-06 22:53 59.59102 11.23852 10809 ft 322 kts 346°
2026-05-06 22:53 59.61268 11.23062 10681 ft 311 kts 345°
2026-05-06 22:54 59.63359 11.22297 10558 ft 301 kts 345°
2026-05-06 22:54 59.65062 11.21673 10427 ft 293 kts 345°
2026-05-06 22:54 59.67045 11.20943 10322 ft 289 kts 345°
2026-05-06 22:54 59.69019 11.20213 10257 ft 288 kts 345°
2026-05-06 22:55 59.70987 11.19483 10141 ft 287 kts 345°
2026-05-06 22:55 59.72944 11.18755 10019 ft 286 kts 345°
2026-05-06 22:55 59.74902 11.18022 9555 ft 289 kts 345°
2026-05-06 22:55 59.76877 11.17277 8970 ft 286 kts 346°
2026-05-06 22:56 59.78804 11.16562 8490 ft 277 kts 346°
2026-05-06 22:56 59.80665 11.15875 8023 ft 268 kts 346°
2026-05-06 22:56 59.82467 11.15206 7579 ft 259 kts 347°
2026-05-06 22:56 59.84222 11.14550 7147 ft 253 kts 347°
2026-05-06 22:57 59.85922 11.13913 6724 ft 245 kts 347°
2026-05-06 22:57 59.87585 11.13294 6303 ft 239 kts 347°
2026-05-06 22:57 59.89212 11.12690 5793 ft 238 kts 348°
2026-05-06 22:57 59.90827 11.12089 5366 ft 235 kts 348°
2026-05-06 22:58 59.92367 11.11120 5001 ft 230 kts 330°
2026-05-06 22:58 59.93650 11.09263 4825 ft 226 kts 314°
2026-05-06 22:58 59.94728 11.07094 4641 ft 214 kts 313°
2026-05-06 22:58 59.95756 11.05027 4368 ft 208 kts 314°
2026-05-06 22:59 59.96770 11.02990 4060 ft 205 kts 315°
2026-05-06 22:59 59.97939 11.01392 4011 ft 206 kts 336°
2026-05-06 22:59 59.99329 11.00726 4018 ft 208 kts 357°
2026-05-06 22:59 60.00758 11.01125 4036 ft 209 kts 15°
2026-05-06 23:00 60.02153 11.01924 3916 ft 207 kts 15°
2026-05-06 23:00 60.03533 11.02715 3662 ft 203 kts 15°
2026-05-06 23:00 60.04857 11.03472 3420 ft 192 kts 15°
2026-05-06 23:00 60.06113 11.04191 3149 ft 184 kts 15°
2026-05-06 23:01 60.07315 11.04890 2896 ft 180 kts 15°
2026-05-06 23:01 60.08498 11.05561 2617 ft 174 kts 14°
2026-05-06 23:01 60.09611 11.06204 2362 ft 161 kts 15°
2026-05-06 23:01 60.10621 11.06808 2239 ft 141 kts 14°
2026-05-06 23:02 60.11535 11.07337 1995 ft 133 kts 14°
2026-05-06 23:02 60.12406 11.07846 1789 ft 127 kts 13°
2026-05-06 23:02 60.13265 11.08333 1644 ft 130 kts 13°
2026-05-06 23:02 60.14155 11.08830 1466 ft 134 kts 13°
2026-05-06 23:03 60.15063 11.09328 1237 ft 135 kts 15°
2026-05-06 23:03 60.15967 11.09847 1053 ft 136 kts 16°
2026-05-06 23:03 60.16863 11.10379 855 ft 132 kts 15°
2026-05-06 23:03 60.17739 11.10876 697 ft 129 kts 17°
2026-05-06 23:04 60.18498 11.11315 683 ft 93 kts 16°
2026-05-06 23:04 60.18966 11.11582 684 ft 53 kts 16°
2026-05-06 23:04 60.19184 11.11693 683 ft 24 kts
2026-05-06 23:04 60.19333 11.11661 681 ft 20 kts 330°
2026-05-06 23:05 60.19387 11.11457 682 ft 14 kts 286°
2026-05-06 23:05 60.19391 11.11284 681 ft 11 kts 230°
2026-05-06 23:05 60.19323 11.11224 683 ft 15 kts 196°
2026-05-06 23:05 60.19209 11.11158 685 ft 16 kts 196°
2026-05-06 23:06 60.19137 11.11055 681 ft 13 kts 262°
2026-05-06 23:06 60.19158 11.10891 684 ft 12 kts 287°
2026-05-06 23:06 60.19178 11.10752 681 ft 9 kts 286°
2026-05-06 23:06 60.19194 11.10637 682 ft 8 kts 285°
2026-05-06 23:07 60.19209 11.10532 685 ft 9 kts 286°
2026-05-06 23:07 60.19228 11.10396 685 ft 9 kts 286°
2026-05-06 23:07 60.19268 11.10320 683 ft 9 kts 352°
2026-05-06 23:07 60.19316 11.10334 682 ft 3 kts 14°
2026-05-06 23:08 60.19332 11.10343 685 ft 1 kts 16°
2026-05-06 23:08 60.19334 11.10344 685 ft 0 kts 16°